[[{"header":{"parameterUnit":"m.s-1","parameterCategory":1,"la1":30.2991,"la2":30.254,"lo1":-89.0895,"lo2":-89.0444,"dy":0.0017,"dx":0.0017,"nx":28,"ny":28,"refTime":"2024-08-11T03:00:00:Z","depth":0,"parameterNumber":2,"parameterNumberName":"U-component_of_WINDS"},"data":[0,0,0,0,0,0,0,0,0,0,0,0,0,0,0,0,0,0,0,0,0,0,0,0,0,0,0,0,0,0,0,0,0,0,0,0,0,0,0,0,0,0,0,0,0,0,0,0,0,0,0,0,0,0,0,0,0,0,-1.8094,-1.8094,0,-1.8078,-1.8078,-1.8077,-1.7963,-1.7961,-1.7958,-1.7955,-1.7943,-1.7945,-1.7947,0,0,0,0,0,0,0,0,0,0,0,0,0,-1.8031,-1.8032,-1.8094,-1.8094,-1.8094,-1.8078,-1.8078,-1.8077,-1.7964,-1.7961,-1.7957,-1.7954,-1.7942,-1.7945,-1.7947,0,0,0,0,0,0,0,0,0,0,0,0,0,-1.8041,-1.8033,-1.8094,-1.8035,-1.803,-1.8078,-1.8078,-1.8077,-1.7965,-1.796,-1.7956,-1.7952,-1.7941,-1.7944,-1.7948,-1.8053,0,0,-1.7958,-1.796,0,0,0,0,0,0,0,0,-1.804,-1.8043,-1.8044,-1.8039,-1.8033,-1.8018,-1.805,-1.8069,-1.7966,-1.799,-1.7955,-1.795,-1.7972,-1.7972,-1.7978,-1.8052,-1.8052,-1.7958,-1.7961,-1.7962,-1.7963,0,0,0,0,0,0,0,-1.804,-1.8043,-1.8088,-1.8044,-1.8038,-1.8011,-1.8007,-1.8053,-1.8005,-1.7987,-1.7979,-1.7978,-1.7968,-1.7975,-1.7977,-1.8051,-1.7958,-1.7961,-1.7964,-1.7965,-1.821,-1.8214,0,0,0,0,0,0,-1.8047,-1.8044,-1.8088,-1.8087,-1.8026,-1.8015,-1.8011,-1.8028,-1.8004,-1.7996,-1.7982,-1.7973,-1.7972,-1.7973,-1.7977,-1.8098,-1.7962,-1.7965,-1.7967,-1.8205,-1.8211,-1.8216,0,0,0,0,0,0,-1.8046,-1.8052,-1.8089,-1.8063,-1.8066,-1.8021,-1.804,-1.8029,-1.8037,-1.7999,-1.7991,-1.7998,-1.7968,-1.7972,-1.8034,-1.8096,-1.7967,-1.797,-1.82,-1.8207,-1.8213,-1.8341,0,0,0,0,0,0,-1.8045,-1.8052,-1.8091,-1.8065,-1.8068,-1.8147,-1.8043,-1.8032,-1.8042,-1.8031,-1.8013,-1.8006,-1.7965,-1.803,-1.8038,-1.8098,-1.7972,-1.8194,-1.8203,-1.8211,-1.8332,-1.8352,-1.8369,0,0,0,0,0,-1.8043,-1.8129,-1.8094,-1.81,-1.8115,-1.815,-1.8152,-1.8103,-1.8048,-1.8087,-1.8063,-1.8006,-1.8087,-1.8037,-1.8045,-1.8108,-1.819,-1.8201,-1.821,-1.8323,-1.8348,-1.8368,0,0,0,0,0,0,-1.8166,-1.8125,-1.8085,-1.8165,-1.8162,-1.8131,-1.8179,-1.813,-1.8144,-1.8133,-1.8072,-1.8069,-1.8141,-1.813,-1.8075,-1.8207,-1.8129,-1.8141,-1.8212,-1.8235,-1.8253,-1.8255,-1.7975,0,0,0,0,0,-1.8202,-1.8233,-1.8196,-1.827,-1.827,-1.8225,-1.8239,-1.8201,-1.8196,-1.8194,-1.8174,-1.8173,-1.8197,-1.8215,-1.8236,-1.8329,-1.8323,-1.8375,-1.8394,-1.841,-1.8422,-1.8469,-1.8492,-1.8249,-1.8249,-1.8248,0,0,-1.8278,-1.8259,-1.8283,-1.8294,-1.8287,-1.8322,-1.8225,-1.8266,-1.8291,-1.8201,-1.8258,-1.8244,-1.8238,-1.8316,-1.8349,-1.8309,-1.8487,-1.8422,-1.8435,-1.8438,-1.8482,-1.8505,-1.8526,-1.8255,-1.8254,-1.8253,0,0,-1.8434,-1.8423,-1.8483,-1.8477,-1.8467,-1.8436,-1.8451,-1.8427,-1.8413,-1.8469,-1.8402,-1.8432,-1.8476,-1.8474,-1.8479,-1.8632,-1.8581,-1.8641,-1.8739,-1.8787,-1.8806,-1.8823,-1.8878,-1.8899,-1.8652,-1.8653,-1.8653,0,-1.853,-1.8578,-1.8521,-1.8565,-1.8573,-1.849,-1.8551,-1.8549,-1.8547,-1.8555,-1.8509,-1.8562,-1.8552,-1.8628,-1.8666,-1.8672,-1.8688,-1.8644,-1.8808,-1.8824,-1.8839,-1.8891,-1.8912,-1.866,-1.8659,-1.8658,-1.8658,0,-1.8697,-1.8731,-1.8781,-1.8779,-1.8792,-1.8845,-1.8797,-1.8816,-1.8777,-1.8751,-1.8809,-1.8794,-1.881,-1.8825,-1.8788,-1.8896,-1.8872,-1.8818,-1.8738,-1.887,-1.8918,-1.8938,-1.8671,-1.8668,-1.8666,-1.8664,0,0,-1.8933,-1.8896,-1.8916,-1.8913,-1.8895,-1.8921,-1.897,-1.8984,-1.9003,-1.9004,-1.9044,-1.9082,-1.9032,-1.9037,-1.8999,-1.904,-1.9163,-1.8981,-1.898,-1.9016,-1.9282,-1.9324,-1.9348,-1.9128,-1.9132,-1.9135,-1.9283,0,-1.9083,-1.9163,-1.9112,-1.9201,-1.9232,-1.9153,-1.9196,-1.919,-1.9167,-1.9191,-1.9165,-1.9193,-1.9124,-1.9127,-1.9165,-1.9141,-1.9216,-1.9129,-1.9167,-1.9169,-1.9172,-1.9373,-1.9417,-1.9558,-1.9301,-1.9305,-1.9307,0,-1.9269,-1.9276,-1.9368,-1.9342,-1.9353,-1.9393,-1.9401,-1.9424,-1.9415,-1.9395,-1.9401,-1.9352,-1.9399,-1.9319,-1.9383,-1.9325,-1.9337,-1.9328,-1.9332,-1.9335,-1.9247,-1.9382,-1.9602,-1.9624,-1.9336,-1.9333,-1.9331,0,-1.9433,-1.9465,-1.9524,-1.9524,-1.9496,-1.9525,-1.9515,-1.9502,-1.9513,-1.952,-1.9527,-1.9541,-1.9549,-1.9561,-1.9517,-1.9462,-1.9587,-1.9504,-1.9573,-1.9575,-1.9605,-1.9604,-1.9831,-1.9611,-1.9611,-1.961,-1.961,0,-1.9607,-1.9666,-1.9596,-1.9633,-1.9697,-1.9638,-1.9703,-1.9685,-1.9674,-1.9706,-1.9639,-1.9671,-1.9609,-1.9635,-1.9601,-1.966,-1.9664,-1.965,-1.964,-1.9657,-1.9659,-1.9665,-1.9655,-1.9616,-1.9615,-1.9613,-1.9612,0,-1.9801,-1.9757,-1.9816,-1.9783,-1.9776,-1.9825,-1.9797,-1.983,-1.9801,-1.9842,-1.9849,-1.9805,-1.9831,-1.9787,-1.981,-1.9787,-1.9869,-1.9844,-1.9871,-1.9865,-1.9937,-1.9931,-2.0177,-2.0206,-1.9967,-1.9969,-1.9971,0,-1.9916,-1.9959,-1.993,-1.9946,-1.9939,-1.9965,-1.9975,-1.9919,-1.9932,-1.9925,-1.9959,-1.998,-1.9993,-2.004,-2.0011,-2.0027,-2.0003,-2.0088,-2.0005,-2.002,-2.0005,-2.0004,-2.0008,-2.0105,-2.0108,-2.0111,-2.0113,0,-2.0124,-2.0099,-2.0116,-2.0125,-2.0139,-2.0144,-2.0144,-2.0161,-2.0101,-2.012,-2.0145,-2.0156,-2.0177,-2.0199,-2.0208,-2.0198,-2.0147,-2.0138,-2.0155,-2.0173,-2.0188,-2.0182,-1.9919,-2.0133,-2.0131,-2.013,-2.0129,-2.0128,-2.0283,-2.0317,-2.0302,-2.0322,-2.0316,-2.0317,-2.0346,-2.0319,-2.0339,-2.0351,-2.0316,-2.035,-2.034,-2.0346,-2.0342,-2.0368,-2.0331,-2.0356,-2.0362,-2.0369,-2.0381,-2.0183,-2.037,-2.0369,-2.0368,-2.0368,-2.0367,0,-2.0488,-2.0473,-2.0493,-2.0494,-2.051,-2.0457,-2.0454,-2.0472,-2.0501,-2.0495,-2.0509,-2.0539,-2.0559,-2.053,-2.0546,-2.0573,-2.0549,-2.0579,-2.0577,-2.0576,-2.0413,-2.0397,-2.0597,-2.0597,-2.0597,-2.0597,-2.0597,-2.0597,-2.0597,-2.0652,-2.0626,-2.0678,-2.0662,-2.0694,-2.0696,-2.0698,-2.0692,-2.0727,-2.0743,-2.0723,-2.0708,-2.0722,-2.0738,-2.0729,-2.0739,-2.0777,-2.076,-2.061,-2.0587,-2.0566,-2.055,-2.0779,-2.078,-2.092,-2.0922,-2.0923]},{"header":{"parameterUnit":"m.s-1","parameterCategory":1,"la1":30.2991,"la2":30.254,"lo1":-89.0895,"lo2":-89.0444,"dy":0.0017,"dx":0.0017,"nx":28,"ny":28,"refTime":"2024-08-11T03:00:00:Z","depth":0,"parameterNumber":3,"parameterNumberName":"V-component_of_WINDS"},"data":[0,0,0,0,0,0,0,0,0,0,0,0,0,0,0,0,0,0,0,0,0,0,0,0,0,0,0,0,0,0,0,0,0,0,0,0,0,0,0,0,0,0,0,0,0,0,0,0,0,0,0,0,0,0,0,0,0,0,-3.1943,-3.1944,0,-3.2013,-3.2014,-3.2014,-3.2004,-3.2003,-3.2002,-3.2001,-3.2069,-3.2072,-3.2075,0,0,0,0,0,0,0,0,0,0,0,0,0,-3.1796,-3.1799,-3.1943,-3.1944,-3.1945,-3.2013,-3.2014,-3.2015,-3.2005,-3.2003,-3.2002,-3.2,-3.2068,-3.2072,-3.2075,0,0,0,0,0,0,0,0,0,0,0,0,0,-3.1862,-3.18,-3.1943,-3.1948,-3.1949,-3.2013,-3.2014,-3.2015,-3.2005,-3.2003,-3.2001,-3.2,-3.2067,-3.2071,-3.2076,-3.2138,0,0,-3.2089,-3.2091,0,0,0,0,0,0,0,0,-3.1859,-3.1868,-3.1946,-3.1948,-3.1949,-3.1998,-3.1987,-3.2056,-3.2005,-3.1984,-3.2001,-3.1999,-3.2047,-3.2053,-3.207,-3.2141,-3.2144,-3.2089,-3.2092,-3.2094,-3.2095,0,0,0,0,0,0,0,-3.1854,-3.1865,-3.197,-3.1947,-3.1949,-3.1945,-3.1953,-3.2,-3.2024,-3.1985,-3.1985,-3.1993,-3.2047,-3.2065,-3.2071,-3.2145,-3.2089,-3.2093,-3.2096,-3.2098,-3.2269,-3.227,0,0,0,0,0,0,-3.1849,-3.1861,-3.1968,-3.1973,-3.1899,-3.1949,-3.1958,-3.1984,-3.2023,-3.2028,-3.1995,-3.1993,-3.2059,-3.2066,-3.2073,-3.2147,-3.2094,-3.2098,-3.2101,-3.2267,-3.2269,-3.2271,0,0,0,0,0,0,-3.1846,-3.1858,-3.1965,-3.1917,-3.193,-3.1954,-3.1983,-3.1986,-3.2005,-3.2031,-3.2035,-3.2009,-3.2058,-3.2067,-3.2122,-3.215,-3.21,-3.2104,-3.2264,-3.2267,-3.227,-3.2296,0,0,0,0,0,0,-3.1841,-3.1857,-3.1882,-3.1917,-3.1933,-3.2014,-3.1985,-3.1989,-3.2013,-3.201,-3.2045,-3.2049,-3.2057,-3.2115,-3.2126,-3.2155,-3.2107,-3.2262,-3.2266,-3.2269,-3.2293,-3.23,-3.2306,0,0,0,0,0,-3.1836,-3.1886,-3.1883,-3.1896,-3.1964,-3.2015,-3.2024,-3.2033,-3.2015,-3.2039,-3.2056,-3.2048,-3.2145,-3.2121,-3.2133,-3.2163,-3.226,-3.2265,-3.2269,-3.229,-3.2298,-3.2305,0,0,0,0,0,0,-3.1852,-3.1891,-3.1888,-3.1951,-3.198,-3.2013,-3.2044,-3.2041,-3.2075,-3.2071,-3.208,-3.2088,-3.2143,-3.2159,-3.2131,-3.2225,-3.22,-3.2207,-3.2212,-3.222,-3.2226,-3.2221,-3.2111,0,0,0,0,0,-3.1864,-3.1903,-3.1934,-3.1987,-3.2001,-3.2021,-3.2043,-3.2047,-3.2077,-3.2089,-3.211,-3.2138,-3.2174,-3.2198,-3.2234,-3.2296,-3.2302,-3.2322,-3.2329,-3.2334,-3.2339,-3.2372,-3.238,-3.2285,-3.2285,-3.2285,0,0,-3.1887,-3.1912,-3.1937,-3.1991,-3.2013,-3.2053,-3.2031,-3.2073,-3.2102,-3.2095,-3.2148,-3.2164,-3.2196,-3.2254,-3.228,-3.2269,-3.2367,-3.2339,-3.2343,-3.2346,-3.2377,-3.2386,-3.2394,-3.2288,-3.2288,-3.2287,0,0,-3.1948,-3.1973,-3.2018,-3.2042,-3.2077,-3.2089,-3.21,-3.2134,-3.2145,-3.2198,-3.2193,-3.2227,-3.2291,-3.2313,-3.2333,-3.2403,-3.2396,-3.2414,-3.2446,-3.2477,-3.2485,-3.2491,-3.2515,-3.2523,-3.2419,-3.242,-3.242,0,-3.1972,-3.2032,-3.2042,-3.2085,-3.2108,-3.2105,-3.215,-3.2172,-3.2217,-3.2232,-3.2219,-3.2298,-3.2319,-3.2382,-3.2399,-3.2416,-3.2427,-3.2409,-3.2483,-3.249,-3.2496,-3.2518,-3.2527,-3.2421,-3.2421,-3.2421,-3.2421,0,-3.2058,-3.21,-3.2133,-3.2177,-3.2203,-3.2248,-3.2263,-3.2289,-3.2291,-3.2304,-3.2357,-3.2383,-3.2423,-3.2438,-3.2441,-3.2501,-3.2493,-3.2481,-3.2456,-3.2507,-3.2528,-3.2537,-3.2424,-3.2423,-3.2423,-3.2422,0,0,-3.2131,-3.2181,-3.2192,-3.2211,-3.225,-3.2282,-3.2325,-3.2365,-3.2386,-3.2417,-3.2453,-3.2506,-3.2496,-3.2518,-3.2523,-3.2551,-3.2603,-3.2536,-3.2537,-3.2546,-3.2669,-3.2676,-3.2686,-3.2599,-3.2601,-3.2602,-3.2666,0,-3.2195,-3.2273,-3.2283,-3.2352,-3.2389,-3.2387,-3.2424,-3.2451,-3.2465,-3.2498,-3.2512,-3.2549,-3.2534,-3.2547,-3.2575,-3.259,-3.2627,-3.2586,-3.2631,-3.2632,-3.2621,-3.2697,-3.2705,-3.2764,-3.2674,-3.2676,-3.2677,0,-3.228,-3.2314,-3.2387,-3.2419,-3.2435,-3.2469,-3.2506,-3.2538,-3.2568,-3.2576,-3.2601,-3.2602,-3.2645,-3.262,-3.2679,-3.2651,-3.2669,-3.268,-3.2682,-3.2685,-3.2656,-3.2701,-3.2783,-3.2791,-3.269,-3.2689,-3.2688,0,-3.2324,-3.2388,-3.2439,-3.2456,-3.2496,-3.2519,-3.2537,-3.2565,-3.2588,-3.262,-3.2635,-3.2671,-3.2691,-3.2718,-3.2728,-3.2709,-3.2786,-3.2762,-3.2792,-3.2792,-3.2807,-3.2806,-3.2892,-3.2822,-3.2822,-3.2822,-3.2822,0,-3.2394,-3.2438,-3.2459,-3.2491,-3.2539,-3.255,-3.2598,-3.2614,-3.2639,-3.2673,-3.2673,-3.2704,-3.2716,-3.2749,-3.2757,-3.2804,-3.2813,-3.2819,-3.282,-3.2818,-3.2817,-3.2829,-3.2825,-3.2824,-3.2824,-3.2823,-3.2823,0,-3.2451,-3.2467,-3.2523,-3.2556,-3.2565,-3.2599,-3.2627,-3.2657,-3.267,-3.2712,-3.2723,-3.2743,-3.2781,-3.2795,-3.2841,-3.2847,-3.29,-3.2899,-3.289,-3.289,-3.2919,-3.2916,-3.3015,-3.3028,-3.2951,-3.2952,-3.2952,0,-3.2493,-3.2527,-3.2564,-3.2587,-3.2605,-3.2642,-3.2666,-3.2678,-3.2702,-3.2738,-3.2763,-3.2802,-3.2833,-3.2894,-3.2912,-3.2947,-3.2946,-3.2978,-3.2951,-3.2947,-3.2944,-3.2941,-3.2944,-3.2983,-3.2983,-3.2984,-3.2985,0,-3.2566,-3.2573,-3.2607,-3.2645,-3.2673,-3.2703,-3.2732,-3.275,-3.2766,-3.2793,-3.2833,-3.2857,-3.2905,-3.2942,-3.2978,-3.2995,-3.2992,-3.2993,-3.3002,-3.2999,-3.2992,-3.2994,-3.2902,-3.299,-3.299,-3.2989,-3.2989,-3.2989,-3.2616,-3.2646,-3.2676,-3.2714,-3.2737,-3.2764,-3.2793,-3.2811,-3.2844,-3.2885,-3.2889,-3.2932,-3.296,-3.3008,-3.3026,-3.3058,-3.3049,-3.3062,-3.3065,-3.3068,-3.3069,-3.2988,-3.3065,-3.3065,-3.3065,-3.3065,-3.3065,0,-3.2688,-3.2707,-3.2743,-3.2783,-3.2813,-3.2809,-3.2841,-3.2865,-3.2903,-3.293,-3.2961,-3.3006,-3.3042,-3.3063,-3.3099,-3.3121,-3.312,-3.313,-3.3128,-3.3131,-3.3076,-3.3064,-3.313,-3.313,-3.313,-3.313,-3.313,-3.313,-3.2728,-3.2778,-3.2788,-3.2848,-3.2867,-3.2909,-3.2927,-3.2951,-3.2973,-3.3023,-3.3054,-3.3068,-3.3092,-3.313,-3.3162,-3.3168,-3.318,-3.319,-3.3194,-3.3142,-3.3135,-3.3129,-3.3118,-3.3193,-3.3193,-3.3246,-3.3247,-3.3247]}]]